# Tabular Observed and Forecast Hydrograph Information
#
# Location: San Timoteo Creek - Loma Linda (TIMC1)
#
# File Generation Time: 09/03/2026 at 07:30 AM PDT
# Data Interval: 1 Hour
#
# Most Recent Date & Time of Maximum Observed: 08/29/2026 at 09:00 AM PDT
# Maximum Observed Stage: 0.90 Feet
# Maximum Observed Flow: 0 cfs
#
# Earliest Date & Time of Maximum Forecast: 09/06/2026 at 02:00 PM PDT
# Maximum Forecast Stage: 1.25 Feet
# Maximum Forecast Flow: 26 cfs
#
# OBSERVED
#
# Date & Time (Local) Stage (Feet) Flow (cfs) Trend Observed Status
# ---------------------------------------------------------------------------------
08/29/2026 07 AM PDT 0.89 0 Not Applicable
08/29/2026 08 AM PDT 0.90 0 + Not Applicable
08/29/2026 09 AM PDT 0.90 0 0 Not Applicable
08/29/2026 10 AM PDT 0.89 0 - Not Applicable
08/29/2026 11 AM PDT 0.88 0 - Not Applicable
08/29/2026 12 PM PDT 0.89 0 + Not Applicable
08/29/2026 01 PM PDT 0.88 0 - Not Applicable
08/29/2026 02 PM PDT 0.88 0 0 Not Applicable
08/29/2026 03 PM PDT 0.88 0 0 Not Applicable
08/29/2026 04 PM PDT 0.88 0 0 Not Applicable
08/29/2026 05 PM PDT 0.88 0 0 Not Applicable
08/29/2026 06 PM PDT 0.88 0 0 Not Applicable
08/29/2026 07 PM PDT 0.88 0 0 Not Applicable
08/29/2026 08 PM PDT 0.85 0 - Not Applicable
08/29/2026 09 PM PDT 0.83 0 - Not Applicable
08/29/2026 10 PM PDT 0.84 0 + Not Applicable
08/29/2026 11 PM PDT 0.84 0 0 Not Applicable
08/30/2026 12 AM PDT 0.85 0 + Not Applicable
08/30/2026 01 AM PDT 0.84 0 - Not Applicable
08/30/2026 02 AM PDT 0.85 0 + Not Applicable
08/30/2026 03 AM PDT 0.87 0 + Not Applicable
08/30/2026 04 AM PDT 0.87 0 0 Not Applicable
08/30/2026 05 AM PDT 0.86 0 - Not Applicable
08/30/2026 06 AM PDT 0.85 0 - Not Applicable
08/30/2026 07 AM PDT 0.85 0 0 Not Applicable
08/30/2026 08 AM PDT 0.84 0 - Not Applicable
08/30/2026 09 AM PDT 0.84 0 0 Not Applicable
08/30/2026 10 AM PDT 0.83 0 - Not Applicable
08/30/2026 11 AM PDT 0.83 0 0 Not Applicable
08/30/2026 12 PM PDT 0.82 0 - Not Applicable
08/30/2026 01 PM PDT 0.82 0 0 Not Applicable
08/30/2026 02 PM PDT 0.81 0 - Not Applicable
08/30/2026 03 PM PDT 0.81 0 0 Not Applicable
08/30/2026 04 PM PDT 0.81 0 0 Not Applicable
08/30/2026 05 PM PDT 0.80 0 - Not Applicable
08/30/2026 06 PM PDT 0.80 0 0 Not Applicable
08/30/2026 07 PM PDT 0.80 0 0 Not Applicable
08/30/2026 08 PM PDT 0.80 0 0 Not Applicable
08/30/2026 09 PM PDT 0.80 0 0 Not Applicable
08/30/2026 10 PM PDT 0.80 0 0 Not Applicable
08/30/2026 11 PM PDT 0.80 0 0 Not Applicable
08/31/2026 12 AM PDT 0.83 0 + Not Applicable
08/31/2026 01 AM PDT 0.82 0 - Not Applicable
08/31/2026 02 AM PDT 0.83 0 + Not Applicable
08/31/2026 03 AM PDT 0.84 0 + Not Applicable
08/31/2026 04 AM PDT 0.85 0 + Not Applicable
08/31/2026 05 AM PDT 0.85 0 0 Not Applicable
08/31/2026 06 AM PDT 0.84 0 - Not Applicable
08/31/2026 07 AM PDT 0.84 0 0 Not Applicable
08/31/2026 08 AM PDT 0.83 0 - Not Applicable
08/31/2026 09 AM PDT 0.83 0 0 Not Applicable
08/31/2026 10 AM PDT 0.85 0 + Not Applicable
08/31/2026 11 AM PDT 0.86 0 + Not Applicable
08/31/2026 12 PM PDT 0.86 0 0 Not Applicable
08/31/2026 01 PM PDT 0.84 0 - Not Applicable
08/31/2026 02 PM PDT 0.83 0 - Not Applicable
08/31/2026 03 PM PDT 0.82 0 - Not Applicable
08/31/2026 04 PM PDT 0.81 0 - Not Applicable
08/31/2026 05 PM PDT 0.81 0 0 Not Applicable
08/31/2026 06 PM PDT 0.81 0 0 Not Applicable
08/31/2026 07 PM PDT 0.80 0 - Not Applicable
08/31/2026 08 PM PDT 0.80 0 0 Not Applicable
08/31/2026 09 PM PDT 0.80 0 0 Not Applicable
08/31/2026 10 PM PDT 0.80 0 0 Not Applicable
08/31/2026 11 PM PDT 0.81 0 + Not Applicable
09/01/2026 12 AM PDT 0.83 0 + Not Applicable
09/01/2026 01 AM PDT 0.82 0 - Not Applicable
09/01/2026 02 AM PDT 0.82 0 0 Not Applicable
09/01/2026 03 AM PDT 0.83 0 + Not Applicable
09/01/2026 04 AM PDT 0.83 0 0 Not Applicable
09/01/2026 05 AM PDT 0.84 0 + Not Applicable
09/01/2026 06 AM PDT 0.84 0 0 Not Applicable
09/01/2026 07 AM PDT 0.83 0 - Not Applicable
09/01/2026 08 AM PDT 0.83 0 0 Not Applicable
09/01/2026 09 AM PDT 0.83 0 0 Not Applicable
09/01/2026 10 AM PDT 0.82 0 - Not Applicable
09/01/2026 11 AM PDT 0.81 0 - Not Applicable
09/01/2026 12 PM PDT 0.83 0 + Not Applicable
09/01/2026 01 PM PDT 0.84 0 + Not Applicable
09/01/2026 02 PM PDT 0.85 0 + Not Applicable
09/01/2026 03 PM PDT 0.86 0 + Not Applicable
09/01/2026 04 PM PDT 0.86 0 0 Not Applicable
09/01/2026 05 PM PDT 0.86 0 0 Not Applicable
09/01/2026 06 PM PDT 0.85 0 - Not Applicable
09/01/2026 07 PM PDT 0.84 0 - Not Applicable
09/01/2026 08 PM PDT 0.83 0 - Not Applicable
09/01/2026 09 PM PDT 0.82 0 - Not Applicable
09/01/2026 10 PM PDT 0.82 0 0 Not Applicable
09/01/2026 11 PM PDT 0.82 0 0 Not Applicable
09/02/2026 12 AM PDT 0.84 0 + Not Applicable
09/02/2026 01 AM PDT 0.84 0 0 Not Applicable
09/02/2026 02 AM PDT 0.85 0 + Not Applicable
09/02/2026 03 AM PDT 0.86 0 + Not Applicable
09/02/2026 04 AM PDT 0.86 0 0 Not Applicable
09/02/2026 05 AM PDT 0.85 0 - Not Applicable
09/02/2026 06 AM PDT 0.84 0 - Not Applicable
09/02/2026 07 AM PDT 0.84 0 0 Not Applicable
09/02/2026 08 AM PDT 0.84 0 0 Not Applicable
09/02/2026 09 AM PDT 0.85 0 + Not Applicable
09/02/2026 10 AM PDT 0.84 0 - Not Applicable
09/02/2026 11 AM PDT 0.84 0 0 Not Applicable
09/02/2026 12 PM PDT 0.83 0 - Not Applicable
09/02/2026 01 PM PDT 0.83 0 0 Not Applicable
09/02/2026 02 PM PDT 0.82 0 - Not Applicable
09/02/2026 03 PM PDT 0.83 0 + Not Applicable
09/02/2026 04 PM PDT 0.82 0 - Not Applicable
09/02/2026 05 PM PDT 0.82 0 0 Not Applicable
09/02/2026 06 PM PDT 0.82 0 0 Not Applicable
09/02/2026 07 PM PDT 0.83 0 + Not Applicable
09/02/2026 08 PM PDT 0.83 0 0 Not Applicable
09/02/2026 09 PM PDT 0.84 0 + Not Applicable
09/02/2026 10 PM PDT 0.84 0 0 Not Applicable
09/02/2026 11 PM PDT 0.85 0 + Not Applicable
09/03/2026 12 AM PDT 0.85 0 0 Not Applicable
09/03/2026 01 AM PDT 0.85 0 0 Not Applicable
09/03/2026 02 AM PDT 0.85 0 0 Not Applicable
09/03/2026 03 AM PDT 0.85 0 0 Not Applicable
09/03/2026 04 AM PDT 0.85 0 0 Not Applicable
09/03/2026 05 AM PDT 0.85 0 0 Not Applicable
09/03/2026 06 AM PDT 0.85 0 0 Not Applicable
09/03/2026 07 AM PDT 0.85 0 0 Not Applicable
#
# FORECAST
#
# Date & Time (Local) Stage (Feet) Flow (cfs) Trend Forecast Status
# ---------------------------------------------------------------------------------
09/03/2026 08 AM PDT 0.85 0 Not Applicable
09/03/2026 09 AM PDT 0.85 0 0 Not Applicable
09/03/2026 10 AM PDT 0.85 0 0 Not Applicable
09/03/2026 11 AM PDT 0.85 0 0 Not Applicable
09/03/2026 12 PM PDT 0.85 0 0 Not Applicable
09/03/2026 01 PM PDT 0.85 0 0 Not Applicable
09/03/2026 02 PM PDT 0.85 0 0 Not Applicable
09/03/2026 03 PM PDT 0.85 0 0 Not Applicable
09/03/2026 04 PM PDT 0.85 0 0 Not Applicable
09/03/2026 05 PM PDT 0.85 0 0 Not Applicable
09/03/2026 06 PM PDT 0.85 0 0 Not Applicable
09/03/2026 07 PM PDT 0.85 0 0 Not Applicable
09/03/2026 08 PM PDT 0.85 0 0 Not Applicable
09/03/2026 09 PM PDT 0.85 0 0 Not Applicable
09/03/2026 10 PM PDT 0.85 0 0 Not Applicable
09/03/2026 11 PM PDT 0.85 0 0 Not Applicable
09/04/2026 12 AM PDT 0.85 0 0 Not Applicable
09/04/2026 01 AM PDT 0.85 0 0 Not Applicable
09/04/2026 02 AM PDT 0.85 0 0 Not Applicable
09/04/2026 03 AM PDT 0.85 0 0 Not Applicable
09/04/2026 04 AM PDT 0.85 0 0 Not Applicable
09/04/2026 05 AM PDT 0.85 0 0 Not Applicable
09/04/2026 06 AM PDT 0.85 0 0 Not Applicable
09/04/2026 07 AM PDT 0.85 0 0 Not Applicable
09/04/2026 08 AM PDT 0.85 0 0 Not Applicable
09/04/2026 09 AM PDT 0.85 0 0 Not Applicable
09/04/2026 10 AM PDT 0.85 0 0 Not Applicable
09/04/2026 11 AM PDT 0.85 0 0 Not Applicable
09/04/2026 12 PM PDT 0.85 0 0 Not Applicable
09/04/2026 01 PM PDT 0.85 0 0 Not Applicable
09/04/2026 02 PM PDT 0.85 0 0 Not Applicable
09/04/2026 03 PM PDT 0.85 0 0 Not Applicable
09/04/2026 04 PM PDT 0.85 0 0 Not Applicable
09/04/2026 05 PM PDT 0.85 0 0 Not Applicable
09/04/2026 06 PM PDT 0.85 0 0 Not Applicable
09/04/2026 07 PM PDT 0.85 0 0 Not Applicable
09/04/2026 08 PM PDT 0.85 0 0 Not Applicable
09/04/2026 09 PM PDT 0.85 0 0 Not Applicable
09/04/2026 10 PM PDT 0.85 0 0 Not Applicable
09/04/2026 11 PM PDT 0.85 0 0 Not Applicable
09/05/2026 12 AM PDT 0.85 0 0 Not Applicable
09/05/2026 01 AM PDT 0.85 0 0 Not Applicable
09/05/2026 02 AM PDT 0.85 0 0 Not Applicable
09/05/2026 03 AM PDT 0.85 0 0 Not Applicable
09/05/2026 04 AM PDT 0.85 0 0 Not Applicable
09/05/2026 05 AM PDT 0.85 0 0 Not Applicable
09/05/2026 06 AM PDT 0.85 0 0 Not Applicable
09/05/2026 07 AM PDT 0.85 0 0 Not Applicable
09/05/2026 08 AM PDT 0.85 0 0 Not Applicable
09/05/2026 09 AM PDT 0.85 0 0 Not Applicable
09/05/2026 10 AM PDT 0.85 0 0 Not Applicable
09/05/2026 11 AM PDT 0.85 0 0 Not Applicable
09/05/2026 12 PM PDT 0.85 0 0 Not Applicable
09/05/2026 01 PM PDT 0.85 0 0 Not Applicable
09/05/2026 02 PM PDT 0.85 0 0 Not Applicable
09/05/2026 03 PM PDT 0.85 0 0 Not Applicable
09/05/2026 04 PM PDT 0.85 0 0 Not Applicable
09/05/2026 05 PM PDT 0.85 0 0 Not Applicable
09/05/2026 06 PM PDT 0.85 0 0 Not Applicable
09/05/2026 07 PM PDT 0.85 0 0 Not Applicable
09/05/2026 08 PM PDT 0.85 0 0 Not Applicable
09/05/2026 09 PM PDT 0.85 0 0 Not Applicable
09/05/2026 10 PM PDT 0.85 0 0 Not Applicable
09/05/2026 11 PM PDT 0.85 0 0 Not Applicable
09/06/2026 12 AM PDT 0.85 0 0 Not Applicable
09/06/2026 01 AM PDT 0.85 0 0 Not Applicable
09/06/2026 02 AM PDT 0.89 0 + Not Applicable
09/06/2026 03 AM PDT 0.94 1 + Not Applicable
09/06/2026 04 AM PDT 0.98 2 + Not Applicable
09/06/2026 05 AM PDT 1.00 2 + Not Applicable
09/06/2026 06 AM PDT 1.01 3 + Not Applicable
09/06/2026 07 AM PDT 1.02 3 + Not Applicable
09/06/2026 08 AM PDT 1.06 5 + Not Applicable
09/06/2026 09 AM PDT 1.12 9 + Not Applicable
09/06/2026 10 AM PDT 1.17 14 + Not Applicable
09/06/2026 11 AM PDT 1.21 20 + Not Applicable
09/06/2026 12 PM PDT 1.23 23 + Not Applicable
09/06/2026 01 PM PDT 1.24 25 + Not Applicable
09/06/2026 02 PM PDT 1.25 26 + Not Applicable
09/06/2026 03 PM PDT 1.25 26 0 Not Applicable
09/06/2026 04 PM PDT 1.24 25 - Not Applicable
09/06/2026 05 PM PDT 1.24 25 0 Not Applicable
09/06/2026 06 PM PDT 1.23 23 - Not Applicable
09/06/2026 07 PM PDT 1.23 23 0 Not Applicable
09/06/2026 08 PM PDT 1.22 21 - Not Applicable
09/06/2026 09 PM PDT 1.21 20 - Not Applicable
09/06/2026 10 PM PDT 1.19 17 - Not Applicable
09/06/2026 11 PM PDT 1.17 14 - Not Applicable
09/07/2026 12 AM PDT 1.16 13 - Not Applicable
09/07/2026 01 AM PDT 1.15 12 - Not Applicable
09/07/2026 02 AM PDT 1.13 10 - Not Applicable
09/07/2026 03 AM PDT 1.11 8 - Not Applicable
09/07/2026 04 AM PDT 1.08 6 - Not Applicable
09/07/2026 05 AM PDT 1.06 5 - Not Applicable
09/07/2026 06 AM PDT 1.03 3 - Not Applicable
09/07/2026 07 AM PDT 1.01 3 - Not Applicable
09/07/2026 08 AM PDT 0.99 2 - Not Applicable
09/07/2026 09 AM PDT 0.97 1 - Not Applicable
09/07/2026 10 AM PDT 0.95 1 - Not Applicable
09/07/2026 11 AM PDT 0.93 1 - Not Applicable
09/07/2026 12 PM PDT 0.92 1 - Not Applicable
09/07/2026 01 PM PDT 0.90 0 - Not Applicable
09/07/2026 02 PM PDT 0.89 0 - Not Applicable
09/07/2026 03 PM PDT 0.88 0 - Not Applicable
09/07/2026 04 PM PDT 0.87 0 - Not Applicable
09/07/2026 05 PM PDT 0.86 0 - Not Applicable
09/07/2026 06 PM PDT 0.86 0 0 Not Applicable
09/07/2026 07 PM PDT 0.86 0 0 Not Applicable
09/07/2026 08 PM PDT 0.86 0 0 Not Applicable
09/07/2026 09 PM PDT 0.86 0 0 Not Applicable
09/07/2026 10 PM PDT 0.86 0 0 Not Applicable
09/07/2026 11 PM PDT 0.86 0 0 Not Applicable
09/08/2026 12 AM PDT 0.86 0 0 Not Applicable
09/08/2026 01 AM PDT 0.86 0 0 Not Applicable
09/08/2026 02 AM PDT 0.86 0 0 Not Applicable
09/08/2026 03 AM PDT 0.86 0 0 Not Applicable
09/08/2026 04 AM PDT 0.86 0 0 Not Applicable
09/08/2026 05 AM PDT 0.86 0 0 Not Applicable
#
# NOTE 1: Stages are rounded to the nearest hundredth (.01) of a foot.
# NOTE 2: Flows are rounded to the nearest (1) cfs.
# NOTE 3: Trends are determined using hourly change in unrounded stage and flow.
# NOTE 4: Maximum Values are determined using unrounded stage and flow.
|